Reynoldsville, PA

6:23 PM EST on February 25, 2017 (GMT -0500)
Du Bois-Jefferson County

Weather History for KDUJ - March, 2013

Change the Weather History Date:

Wednesday, March 20, 2013

  Actual Average Record
Temperature  
Mean Temperature 25 °F 36 °F  
Max Temperature 29 °F 46 °F 73 °F (1976)
Min Temperature 20 °F 27 °F 8 °F (1986)
Degree Days  
Heating Degree Days 40 29  
Month to date heating degree days 692 643  
Since 1 July heating degree days 5415 5666  
Cooling Degree Days 0 0  
Month to date cooling degree days 0 0  
Year to date cooling degree days 0 0  
Moisture  
Dew Point 16 °F    
Average Humidity 71    
Maximum Humidity 88    
Minimum Humidity 53    
Precipitation  
Precipitation T in 0.11 in 0.91 in (2004)
Month to date precipitation 0.95 2.07  
Sea Level Pressure  
Sea Level Pressure 29.84 in    
Wind  
Wind Speed 12 mph (West)    
Max Wind Speed 25 mph    
Max Gust Speed 31 mph    
Visibility 7 miles    
Events Snow    
T = Trace of Precipitation, MM = Missing Value Source: NWS Daily Summary

Daily Weather History Graph

Daily Weather History Graph

Search for Another Location

Airport or City:

Trip Planner

Search our weather history database for the weather conditions in past years. The results will help you decide how hot, cold, wet, or windy it might be!

Date:

Astronomy

Mar. 20, 2013 Rise Set
Actual Time 7:18 AM EDT 7:28 PM EDT
Civil Twilight 6:51 AM EDT 7:55 PM EDT
Nautical Twilight 6:18 AM EDT 8:27 PM EDT
Astronomical Twilight 5:46 AM EDT 9:00 PM EDT
Moon 12:58 PM EDT (3/20) 3:00 AM EDT (3/20)
Length of Visible Light 13h 04m
Length of Day
12h 09m
First Quarter, 59% of the Moon is Illuminated
Mar 20
First Quarter
Mar 27
Full
Apr 3
Last Quarter
Apr 10
New
Apr 18
First Quarter

Hourly Weather History & Observations

Time (EDT) Temp. Windchill Dew Point Humidity Pressure Visibility Wind Dir Wind Speed Gust Speed Precip Events Conditions
12:56 AM 25.0 °F 11.3 °F 15.1 °F 66% 29.88 in 10.0 mi West 18.4 mph 26.5 mph N/A   Overcast
1:56 AM 25.0 °F 12.2 °F 15.1 °F 66% 29.89 in 10.0 mi West 16.1 mph 21.9 mph N/A   Overcast
2:17 AM 24.8 °F 14.6 °F 15.8 °F 69% 29.84 in 4.0 mi West 10.4 mph 21.9 mph 0.00 in Snow Light Snow
2:56 AM 24.1 °F 13.7 °F 18.0 °F 77% 29.90 in 5.0 mi WNW 10.4 mph 17.3 mph 0.00 in Snow Light Snow
3:04 AM 24.8 °F 15.3 °F 19.4 °F 80% 29.84 in 1.8 mi WNW 9.2 mph - 0.00 in Snow Light Snow
3:56 AM 23.0 °F 11.7 °F 19.9 °F 88% 29.89 in 1.0 mi West 11.5 mph - 0.00 in Snow Light Snow
4:56 AM 23.0 °F 13.9 °F 19.9 °F 88% 29.90 in 1.8 mi West 8.1 mph - 0.00 in Snow Light Snow
5:23 AM 21.2 °F 12.6 °F 19.4 °F 93% 29.84 in 2.0 mi WSW 6.9 mph - 0.00 in Snow Light Snow
5:51 AM 21.2 °F 10.1 °F 17.6 °F 86% 29.84 in 4.0 mi WSW 10.4 mph - 0.00 in Snow Light Snow
5:56 AM 21.9 °F 9.8 °F 16.0 °F 78% 29.91 in 7.0 mi West 12.7 mph - 0.00 in   Overcast
6:56 AM 21.9 °F 11.0 °F 15.1 °F 75% 29.92 in 9.0 mi West 10.4 mph - N/A   Overcast
7:05 AM 21.2 °F 12.6 °F 15.8 °F 80% 29.85 in 9.0 mi West 6.9 mph - N/A   Overcast
7:15 AM 21.2 °F 10.1 °F 15.8 °F 80% 29.85 in 10.0 mi WSW 10.4 mph - N/A   Overcast
7:56 AM 21.9 °F 9.2 °F 15.1 °F 75% 29.92 in 10.0 mi WSW 13.8 mph - N/A   Overcast
8:38 AM 21.2 °F 9.5 °F 15.8 °F 80% 29.84 in 10.0 mi WSW 11.5 mph - N/A   Overcast
8:56 AM 23.0 °F 9.2 °F 14.0 °F 68% 29.91 in 10.0 mi WSW 17.3 mph - N/A   Mostly Cloudy
9:03 AM 23.0 °F 10.1 °F 14.0 °F 68% 29.84 in 10.0 mi WSW 15.0 mph - N/A   Scattered Clouds
9:44 AM 24.8 °F 10.7 °F 14.0 °F 64% 29.83 in 10.0 mi WSW 19.6 mph 25.3 mph N/A   Mostly Cloudy
9:51 AM 24.8 °F 10.7 °F 14.0 °F 64% 29.84 in 10.0 mi West 19.6 mph 25.3 mph N/A   Mostly Cloudy
9:56 AM 24.1 °F 10.1 °F 12.9 °F 62% 29.90 in 10.0 mi West 18.4 mph - N/A   Mostly Cloudy
10:56 AM 26.1 °F 13.1 °F 15.1 °F 63% 29.88 in 10.0 mi WSW 17.3 mph - N/A   Mostly Cloudy
11:56 AM 28.0 °F 16.5 °F 14.0 °F 56% 29.86 in 10.0 mi WSW 15.0 mph 24.2 mph N/A   Overcast
12:56 PM 28.9 °F 15.8 °F 15.1 °F 56% 29.85 in 10.0 mi West 20.7 mph 31.1 mph N/A   Overcast
1:56 PM 28.0 °F 15.3 °F 16.0 °F 61% 29.84 in 8.0 mi WSW 18.4 mph 28.8 mph 0.00 in   Overcast
2:06 PM 26.6 °F 12.0 °F 17.6 °F 69% 29.78 in 1.8 mi WSW 23.0 mph 28.8 mph 0.00 in Snow Light Snow
2:15 PM 26.6 °F 13.8 °F 19.4 °F 74% 29.78 in 0.5 mi WSW 17.3 mph - 0.00 in Snow Snow
2:27 PM 26.6 °F 14.7 °F 21.2 °F 80% 29.78 in 0.2 mi West 15.0 mph - 0.00 in Snow Heavy Snow
2:48 PM 26.6 °F 16.8 °F 23.0 °F 86% 29.77 in 1.0 mi WSW 10.4 mph - 0.00 in Snow Light Snow
2:56 PM 27.0 °F 16.7 °F 21.9 °F 81% 29.83 in 1.5 mi WSW 11.5 mph - 0.00 in Snow Light Snow
3:02 PM 26.6 °F 16.8 °F 21.2 °F 80% 29.76 in 3.0 mi West 10.4 mph - 0.00 in Snow Light Snow
3:09 PM 28.4 °F 18.5 °F 19.4 °F 69% 29.76 in 8.0 mi West 11.5 mph - 0.00 in Snow Light Snow
3:28 PM 26.6 °F 15.7 °F 19.4 °F 74% 29.76 in 6.0 mi West 12.7 mph 23.0 mph 0.00 in   Haze
3:44 PM 26.6 °F 14.3 °F 19.4 °F 74% 29.76 in 1.8 mi West 16.1 mph 28.8 mph 0.00 in Snow Light Snow
3:52 PM 28.4 °F 17.5 °F 19.4 °F 69% 29.76 in 3.0 mi West 13.8 mph - 0.00 in Snow Light Snow
3:56 PM 28.0 °F 15.7 °F 19.0 °F 69% 29.82 in 6.0 mi West 17.3 mph 23.0 mph 0.00 in   Haze
4:56 PM 28.0 °F 17.5 °F 17.1 °F 63% 29.82 in 10.0 mi West 12.7 mph 21.9 mph 0.00 in   Overcast
5:56 PM 28.0 °F 16.5 °F 15.1 °F 58% 29.83 in 10.0 mi WNW 15.0 mph - N/A   Overcast
6:56 PM 26.1 °F 15.6 °F 12.9 °F 58% 29.83 in 10.0 mi WNW 11.5 mph - N/A   Overcast
7:56 PM 25.0 °F 18.1 °F 12.9 °F 60% 29.84 in 10.0 mi West 5.8 mph - N/A   Mostly Cloudy
8:56 PM 24.1 °F 13.1 °F 12.9 °F 62% 29.85 in 10.0 mi West 11.5 mph - N/A   Overcast
9:56 PM 24.1 °F 15.2 °F 12.0 °F 60% 29.86 in 10.0 mi NW 8.1 mph - N/A   Overcast
10:56 PM 21.0 °F 14.6 °F 12.9 °F 71% 29.86 in 10.0 mi NW 4.6 mph - N/A   Overcast
11:05 PM 21.2 °F 14.9 °F 12.2 °F 68% 29.79 in 10.0 mi NW 4.6 mph - N/A   Overcast
11:18 PM 21.2 °F - 12.2 °F 68% 29.79 in 10.0 mi Calm Calm - N/A   Overcast
11:56 PM 21.0 °F 16.2 °F 14.0 °F 74% 29.86 in 10.0 mi NNW 3.5 mph - N/A   Overcast